Regional Weather Roundup
Issued by NWS Sterling, VA

Home | Current Version | Previous Version | Text Only | Print | Product List | Glossary Off
Versions: 1 2 3 4 5 6 7 8 9 10 11 12 13 14 15 16 17 18 19 20 21 22 23 24 25 26 27 28 29 30 31 32 33 34 35 36 37 38 39 40 41 42 43 44 45 46 47 48 49 50

000
ASUS41 KLWX 291410
RWRLWX

REGIONAL WEATHER ROUNDUP
NATIONAL WEATHER SERVICE BALTIMORE MD/WASHINGTON DC
1000 AM EDT SUN MAR 29 2015

Note: "FAIR" indicates few or no clouds below 12,000 feet
with no significant weather and/or obstructions to visibility.
 TC=TEMPERATURE CELSIUS

 * =Non NWS site. Station does not report precipitation (e.g. rain,
    snow, etc.), thunder, or fog.

DCZ001-MDZ009-015-VAZ040>042-051-053>054-291500-
WASHINGTON METRO

CITY           SKY/WX    TMP DP  RH WIND       PRES   REMARKS
WASHINGTON NAT SUNNY     34  11  38 NW12      30.41R WCI  25
DULLES         SUNNY     30   8  39 NW12      30.40R WCI  20
ANDREWS AFB    SUNNY     31   8  38 NW12      30.38R WCI  22
FT BELVOIR     SUNNY     32   8  36 W10G17    30.41R WCI  24
QUANTICO       SUNNY     33   6  32 N12G26    30.43R WCI  24
COLLEGE PARK*  SUNNY     32   9  37 NW9       30.39S WCI  24
LEESBURG*      SUNNY     32  14  47 NW14      30.41R WCI  22
MANASSAS*      SUNNY     30  10  43 NW10G16   30.41R WCI  21
GAITHERSBURG*  SUNNY     30   9  40 NW6       30.41R

$$

MDZ006>007-011-014-291500-
BALTIMORE METRO

CITY           SKY/WX    TMP DP  RH WIND       PRES   REMARKS
BWI AIRPORT    SUNNY     32   8  36 NW7       30.37S
MD SCIENCE CTR   N/A     32   6  33 MISG      30.39R
MARTIN STATE   SUNNY     34  12  40 NW9       30.39R WCI  26
ANNAPOLIS      SUNNY     31  12  45 NW12      30.38R WCI  22

$$

MDZ012-015-019>023-291500-
MARYLAND EASTERN SHORE

CITY           SKY/WX    TMP DP  RH WIND       PRES   REMARKS
OCEAN CITY     SUNNY     32  11  41 N16       30.35R WCI  21
SALISBURY      SUNNY     32  12  43 NW16      30.35R WCI  21
BAY BRIDGE AP*   N/A     32  10  40 NW8       30.38S WCI  25
CAMBRIDGE*     SUNNY     34  14  44 NW14      30.37S WCI  24
EASTON*        SUNNY     32  16  51 N9G23     30.40R WCI  24

$$

MDZ017>025-291500-
SOUTHERN MARYLAND

CITY           SKY/WX    TMP DP  RH WIND       PRES   REMARKS
PATUXENT RIVER SUNNY     32   9  38 NW14      30.38S WCI  22
ST INIGOES     SUNNY     33   7  33 NW9       30.38S WCI  25
LEONARDTOWN*   SUNNY     32   9  37 NW5       30.39S

$$

MDZ003>005-291500-
NORTH CENTRAL MARYLAND

CITY           SKY/WX    TMP DP  RH WIND       PRES   REMARKS
FREDERICK*     SUNNY     34  30  86 N7        30.42R
HAGERSTOWN APT SUNNY     29   7  39 NW13      30.38R WCI  19
WESTMINSTER*   SUNNY     27   7  43 NW7       30.34R

$$

MDZ501>502-291500-
WESTERN MARYLAND

CITY           SKY/WX    TMP DP  RH WIND       PRES   REMARKS
OAKLAND*       SUNNY     19  12  73 NW6       30.24S
CUMBERLAND*    SUNNY     30   9  40 CALM      30.43S

$$

VAZ025>031-291500-
SHENANDOAH VALLEY

CITY           SKY/WX    TMP DP  RH WIND       PRES   REMARKS
WINCHESTER*    SUNNY     32   0  25 NW12      30.38R WCI  23
FRONT ROYAL*   FAIR      32   3  29 N7        30.38R
LURAY*         FAIR      32   9  37 S5        30.38R
NEW MARKET*    FAIR      29   4  34 CALM      30.38R
STAUNTON*      SUNNY     29   5  35 W5        30.39R
WAYNESBORO*    FAIR      28   4  36 NW6       30.36R

$$

WVZ021-048>050-054>055-291500-
EASTERN WEST VIRGINIA PANHANDLE

CITY           SKY/WX    TMP DP  RH WIND       PRES   REMARKS
MARTINSBURG    SUNNY     31   6  35 N8        30.40R WCI  23
PETERSBURG*    SUNNY     29   3  32 E5        30.40R

$$

VAZ036>039-050-291500-
CENTRAL FOOTHILLS

CITY           SKY/WX    TMP DP  RH WIND       PRES   REMARKS
CHARLOTTESVILL SUNNY     33   0  24 NW6       30.38S
CULPEPER*      SUNNY     34   5  29 N8        30.41R WCI  27
ORANGE*        SUNNY     32  10  40 SW5       30.41S
GORDONSVILLE*  FAIR      32   4  31 CALM      30.39S
WARRENTON*     FAIR      34  13  42 N10       30.40R WCI  26

$$

VAZ055>057-291500-
NORTH AND CENTRAL PIEDMONT

CITY           SKY/WX    TMP DP  RH WIND       PRES   REMARKS
FREDERICKSBRG* SUNNY     33   8  35 NW9       30.42R WCI  25
STAFFORD*      SUNNY     32   6  33 N10       30.45S WCI  23

$$

NCZ024-NYZ072-PAZ021-071-VAZ022-071-291500-
OTHER REGIONAL OBSERVATIONS

CITY           SKY/WX    TMP DP  RH WIND       PRES   REMARKS
NEW YORK CITY  SUNNY     31   2  29 VRB5      30.30R
PHILADELPHIA   SUNNY     32   6  33 NW14      30.34R WCI  22
PITTSBURGH     SUNNY     27  11  51 SW8       30.35S WCI  19
ROANOKE        SUNNY     32   2  27 VRB3      30.41R
RICHMOND       SUNNY     34   6  31 N15       30.42R WCI  24
RALEIGH        SUNNY     35  11  36 N9        30.44R WCI  28

$$

ANZ530>537-291500-
MARINE OBSERVATIONS

STATION/POSITION TIME  TEMP    WIND        PRES
                       AIR SEA DIR/SP/G
                 (UTC) (F)     (DEG/KT/KT) (MB)
THOMAS PT LIGHT  1400                        N/A
BALT KEY BRIDGE  1300   28     310/ 14/ 18 1028.4R
COVE POINT       1300   27     350/ 19/ 22 1028.4R
LEWISETTA        1300   30 42              1028.9R
SOLOMONS ISLAND  1300      42                N/A
PINEY POINT      1300          350/ 16/ 18   N/A

$$



USA.gov is the U.S. government's official web portal to all federal, state and local government web resources and services.